GW5759 Weather Reports


time (UTC)temp
F
wind
direction
speed
knots
gust
knots
rain 1hr
in
rain 24hr
in
rain mn
in
humidity
%
barometer
mb
20260504081803 72 258 0.0 0.9 0.00 0.00 0.00 44 1013.3
20260504081118 71 235 0.0 1.7 0.00 0.00 0.00 47 1013.3
20260504050003 53 125 0.0 0.9 0.00 0.00 0.00 67 1013.0
20260504045403 52 90 0.0 0.9 0.00 0.00 0.00 67 1012.9
20260504044504 52 0 0.0 0.0 0.00 0.00 0.00 70 1012.9
20260504043604 51 0 0.0 0.0 0.00 0.00 0.00 69 1013.0
20260504041803 49 0 0.0 0.0 0.00 0.00 0.00 73 1013.2
20260504040903 49 0 0.0 0.0 0.00 0.00 0.00 72 1012.8
20260504040003 50 0 0.0 0.0 0.00 0.00 0.00 69 1012.9
20260504035620 50 127 0.0 0.9 0.00 0.00 0.00 68 1012.7
20260504034503 49 119 0.0 0.9 0.00 0.00 0.00 69 1012.5
20260504033603 49 0 0.0 0.0 0.00 0.00 0.00 71 1012.6
20260504032703 50 0 0.0 0.0 0.00 0.00 0.00 68 1012.6
20260504031803 49 0 0.0 0.0 0.00 0.00 0.00 69 1012.2
20260504030903 49 0 0.0 0.0 0.00 0.00 0.00 69 1012.4
20260504025403 49 116 0.0 0.9 0.00 0.00 0.00 70 1012.1
20260504022703 49 0 0.0 0.0 0.00 0.00 0.00 70 1012.3
20260504021803 50 0 0.0 0.0 0.00 0.00 0.00 70 1012.3
20260504021116 50 0 0.0 0.0 0.00 0.00 0.00 69 1012.4
20260504020219 50 0 0.0 0.0 0.00 0.00 0.00 68 1012.2
20260504015403 51 0 0.0 0.0 0.00 0.00 0.00 68 1012.3
20260504014503 51 0 0.0 0.0 0.00 0.00 0.00 67 1012.1
20260504013603 51 0 0.0 0.0 0.00 0.00 0.00 67 1012.1
20260504012703 53 0 0.0 0.0 0.00 0.00 0.00 64 1011.7
20260504011121 54 170 0.0 0.9 0.00 0.00 0.00 61 1012.1
20260504010219 54 152 0.9 1.7 0.00 0.00 0.00 61 1012.2
20260504005618 54 155 0.9 1.7 0.00 0.00 0.00 61 1012.3
20260504004718 54 187 0.0 0.9 0.00 0.00 0.00 62 1012.2
20260504003817 53 181 0.0 0.9 0.00 0.00 0.00 65 1012.3
20260504002916 53 142 0.0 0.9 0.00 0.00 0.00 67 1012.3
20260504001803 53 194 0.0 0.9 0.00 0.00 0.00 66 1012.2
20260504001119 53 213 0.0 1.7 0.00 0.00 0.00 66 1012.2
20260504000003 51 0 0.0 0.0 0.00 0.00 0.00 70 1012.4
20260503235403 51 0 0.0 0.0 0.00 0.00 0.00 70 1012.5
20260503234717 51 0 0.0 0.0 0.00 0.00 0.00 70 1012.4
20260503233603 51 0 0.0 0.0 0.00 0.00 0.00 71 1012.3
20260503232920 50 0 0.0 0.0 0.00 0.00 0.00 72 1012.6
20260503230004 55 0 0.0 0.0 0.00 0.00 0.00 60 1012.8
20260503225403 55 0 0.0 0.0 0.00 0.00 0.00 60 1012.8
20260503224503 56 196 0.0 0.9 0.00 0.00 0.00 59 1012.7
20260503223603 56 196 0.0 0.9 0.00 0.00 0.00 58 1012.7
20260503222703 57 0 0.0 0.0 0.00 0.00 0.00 56 1012.8
20260503221803 58 131 0.0 0.9 0.00 0.00 0.00 54 1013.0
20260503221118 58 131 0.0 0.9 0.00 0.00 0.00 53 1013.2
20260503220003 59 0 0.0 0.0 0.00 0.00 0.00 52 1013.0
20260503215617 59 122 0.0 0.9 0.00 0.00 0.00 52 1012.9
20260503213603 61 219 0.0 0.9 0.00 0.00 0.00 48 1013.0
20260503212920 62 219 0.0 0.9 0.00 0.00 0.00 46 1013.1
20260503211803 64 200 0.9 1.7 0.00 0.00 0.00 44 1012.9
20260503210004 65 212 0.9 1.7 0.00 0.00 0.00 43 1013.1
20260503205617 65 204 0.9 1.7 0.00 0.00 0.00 42 1013.0
20260503203603 66 207 0.9 3.5 0.00 0.00 0.00 41 1013.1
20260503202703 66 225 0.9 1.7 0.00 0.00 0.00 40 1013.0
20260503201803 66 198 1.7 3.5 0.00 0.00 0.00 40 1012.8
20260503201118 67 191 0.9 2.6 0.00 0.00 0.00 40 1013.0
20260503200004 67 222 1.7 3.5 0.00 0.00 0.00 40 1013.1
20260503195403 67 205 1.7 5.2 0.00 0.00 0.00 40 1013.0
20260503194503 67 202 0.9 2.6 0.00 0.00 0.00 41 1013.0
20260503193819 66 216 0.9 2.6 0.00 0.00 0.00 41 1012.9
20260503192703 66 217 0.9 2.6 0.00 0.00 0.00 42 1013.0
20260503191803 67 214 0.9 2.6 0.00 0.00 0.00 42 1013.0
20260503191117 67 194 0.9 1.7 0.00 0.00 0.00 42 1012.9
20260503190003 68 214 0.9 1.7 0.00 0.00 0.00 41 1012.6
20260503184720 68 212 0.9 2.6 0.00 0.00 0.00 41 1012.7
20260503183603 69 216 0.9 1.7 0.00 0.00 0.00 40 1012.4
20260503182704 70 212 0.9 1.7 0.00 0.00 0.00 40 1012.4
20260503182018 70 221 0.9 1.7 0.00 0.00 0.00 39 1012.4
20260503180903 71 223 0.9 2.6 0.00 0.00 0.00 39 1012.4
20260503180004 71 200 0.0 1.7 0.00 0.00 0.00 38 1012.6
20260503175403 72 211 0.0 0.9 0.00 0.00 0.00 36 1012.2
20260503174719 73 212 0.9 0.9 0.00 0.00 0.00 34 1012.2
20260503173603 75 179 0.9 2.6 0.00 0.00 0.00 31 1012.1
20260503172918 75 165 0.9 2.6 0.00 0.00 0.00 30 1012.1
20260503171803 76 208 0.9 1.7 0.00 0.00 0.00 30 1012.2
20260503170904 77 179 0.9 3.5 0.00 0.00 0.00 28 1012.2
20260503170216 77 211 0.9 2.6 0.00 0.00 0.00 28 1012.3
20260503150903 81 210 1.7 3.5 0.00 0.00 0.00 27 1012.6
20260503130903 81 164 2.6 6.1 0.00 0.00 0.00 26 1014.2